Location: Northcutt
(34.7304°N, 84.4305°W)
Time: 15:03:21
(UTC+00:00)

Vanguard 2 - Visible Passes

Search period start: 26 September 2022 00:00
Search period end: 06 October 2022 00:00
Orbit: 551 x 2935 km, 32.9° (Epoch: 25 September)

Date Brightness Start Highest point End Pass type
(mag) Time Alt. Az. Time Alt. Az. Time Alt. Az.
26 Sep 10.1 01:24:16 10° W 01:41:44 64° SSW 01:48:12 38° SE visible
26 Sep 10.8 03:39:14 10° W 03:49:33 28° WSW 03:49:33 28° WSW visible
26 Sep 10.5 23:28:49 10° W 23:46:43 81° S 00:02:19 10° ESE visible
27 Sep 10.2 01:41:56 10° W 01:58:52 56° SSW 02:04:26 39° SSE visible
27 Sep 11.1 03:57:59 10° W 04:05:47 20° WSW 04:05:47 20° WSW visible
27 Sep 10.5 23:46:21 10° W 00:04:14 77° SSW 00:19:21 11° ESE visible
28 Sep 10.3 01:59:41 10° W 02:15:52 47° SW 02:20:43 37° S visible
28 Sep 11.4 04:17:52 10° W 04:22:04 14° WSW 04:22:04 14° WSW visible
29 Sep 10.5 00:03:52 10° W 00:21:39 71° SSW 00:35:42 14° ESE visible
29 Sep 10.5 02:17:37 10° W 02:32:43 38° SW 02:37:04 32° S visible
30 Sep 10.6 00:21:26 10° W 00:38:57 63° SSW 00:52:07 16° SE visible
30 Sep 10.8 02:35:51 10° W 02:49:27 30° SW 02:53:30 26° SSW visible
01 Oct 10.7 00:39:03 10° W 00:56:07 55° SSW 01:08:38 16° SE visible
01 Oct 11.1 02:54:38 10° W 03:06:07 22° SW 03:10:01 20° SSW visible
02 Oct 10.9 00:56:46 10° W 01:13:09 46° SW 01:25:14 16° SSE visible
02 Oct 11.4 03:14:31 10° W 03:22:44 16° SW 03:26:37 14° SSW visible
03 Oct 11.1 01:14:42 10° W 01:30:05 38° SW 01:41:56 14° SSE visible
03 Oct 10.8 23:19:21 10° W 23:35:48 61° SSW 23:52:18 10° SE visible
04 Oct 11.3 01:32:58 10° W 01:46:55 30° SW 01:58:44 11° S visible
04 Oct 11.0 23:36:56 10° W 23:53:02 53° SSW 00:09:03 10° SE visible
05 Oct 11.5 01:51:49 10° W 02:03:43 22° SW 02:14:25 10° S visible
